TimeCDT,TemperatureF,Dew PointF,Humidity,Sea Level PressureIn,VisibilityMPH,Wind Direction,Wind SpeedMPH,Gust SpeedMPH,PrecipitationIn,Events,Conditions,WindDirDegrees,DateUTC
12:53 AM,57.9,54.0,87,30.14,10.0,Calm,Calm,-,N/A,,Overcast,0,2013-08-05 05:53:00
1:53 AM,57.9,54.0,87,30.12,10.0,Calm,Calm,-,N/A,,Scattered Clouds,0,2013-08-05 06:53:00
2:53 AM,55.9,53.1,90,30.09,10.0,South,3.5,-,N/A,,Clear,180,2013-08-05 07:53:00
3:53 AM,55.0,52.0,89,30.09,10.0,Calm,Calm,-,N/A,,Clear,0,2013-08-05 08:53:00
4:53 AM,55.0,52.0,89,30.08,10.0,Calm,Calm,-,N/A,,Clear,0,2013-08-05 09:53:00
5:53 AM,60.1,54.0,80,30.08,10.0,South,3.5,-,N/A,,Clear,170,2013-08-05 10:53:00
6:53 AM,60.1,55.9,86,30.07,10.0,South,3.5,-,N/A,,Clear,180,2013-08-05 11:53:00
7:53 AM,63.0,57.0,81,30.09,10.0,South,4.6,-,N/A,,Overcast,180,2013-08-05 12:53:00
8:53 AM,64.0,55.9,75,30.08,10.0,South,5.8,-,N/A,,Mostly Cloudy,180,2013-08-05 13:53:00
9:53 AM,64.9,55.9,73,30.06,10.0,South,6.9,-,N/A,,Mostly Cloudy,170,2013-08-05 14:53:00
10:53 AM,66.9,55.0,66,30.00,10.0,SSE,11.5,-,N/A,,Partly Cloudy,160,2013-08-05 15:53:00
11:53 AM,72.0,57.0,59,29.98,10.0,South,10.4,-,N/A,,Partly Cloudy,170,2013-08-05 16:53:00
12:53 PM,75.0,60.1,60,29.99,10.0,SSW,12.7,16.1,N/A,,Scattered Clouds,200,2013-08-05 17:53:00
1:53 PM,73.9,61.0,64,29.97,10.0,WSW,10.4,-,N/A,,Mostly Cloudy,240,2013-08-05 18:53:00
2:53 PM,73.0,59.0,61,29.96,10.0,SSW,9.2,-,N/A,,Mostly Cloudy,210,2013-08-05 19:53:00
3:53 PM,73.0,59.0,61,29.96,10.0,SW,9.2,-,N/A,,Mostly Cloudy,220,2013-08-05 20:53:00
4:53 PM,71.1,59.0,66,29.95,10.0,SSW,4.6,-,N/A,,Overcast,210,2013-08-05 21:53:00
5:53 PM,70.0,57.9,65,29.93,10.0,South,8.1,17.3,0.00,,Overcast,190,2013-08-05 22:53:00
6:53 PM,69.1,57.9,68,29.91,10.0,South,6.9,-,N/A,,Overcast,170,2013-08-05 23:53:00
7:53 PM,68.0,57.9,70,29.90,10.0,South,4.6,-,N/A,,Overcast,190,2013-08-06 00:53:00
8:53 PM,68.0,59.0,73,29.91,10.0,South,4.6,-,N/A,,Overcast,170,2013-08-06 01:53:00
9:53 PM,68.0,60.1,76,29.91,10.0,SSW,6.9,-,N/A,,Overcast,210,2013-08-06 02:53:00
10:53 PM,64.9,62.1,90,29.90,9.0,South,6.9,-,0.01,,Overcast,190,2013-08-06 03:53:00
11:53 PM,64.9,62.1,90,29.89,7.0,South,6.9,-,N/A,,Overcast,180,2013-08-06 04:53:00